User: anonymous   Login
Location: Eyeline Observatory
(43.2182°N, 78.8632°W)
Time: 14:47:17
(UTC-05:00)
Language:

SO-50 - Orbit

View from above orbital plane
View from above orbital plane
View from above satellite
View from above satellite

Ground track
Ground track

The orbit data is extracted from the following two-line orbital elements,

1 27607U 02058C   18320.17099625  .00000013  00000-0  22733-4 0  9995
2 27607  64.5554 345.4379 0078216 297.2680  62.0471 14.75497160855389
Epoch (UTC): 16 November 2018 04:06:14
Eccentricity: 0.0078216
inclination: 64.5554°
perigee height: 588 km
apogee height: 698 km
right ascension of ascending node: 345.4379°
argument of perigee: 297.2680°
revolutions per day: 14.75497160
mean anomaly at epoch: 62.0471°
orbit number at epoch: 85538

The dashed part of the orbit path shows where the satellite is in the earth's shadow,  

DLR